• In Belarus
  • List of Countries
  • For 7 days
  • Water Temperature
  • Satellite Maps
  • Weather Map
  • Weather Widgets
  • user-avatar
    Login

    Hourly Weather Ulegej

    Today, 22 January, Tuesday

    Time Temperature Precipitation Wind Pressure Humidity
    00:00 -17°C° 0 mm 3 mps 614 mmHg 33%
    01:00 -17°C° 0 mm 3 mps 614 mmHg 34%
    02:00 -17°C° 0 mm 3 mps 614 mmHg 34%
    03:00 -17°C° 0 mm 3 mps 614 mmHg 35%
    04:00 -16°C° 0 mm 3 mps 614 mmHg 38%
    05:00 -16°C° 0 mm 3 mps 614 mmHg 40%
    06:00 -16°C° 0 mm 3 mps 615 mmHg 45%
    07:00 -16°C° 0 mm 3 mps 615 mmHg 47%
    08:00 -15°C° 0 mm 3 mps 615 mmHg 48%
    09:00 -15°C° 0 mm 3 mps 615 mmHg 49%
    10:00 -14°C° 0 mm 3 mps 615 mmHg 52%
    11:00 -13°C° 0 mm 3 mps 616 mmHg 55%
    12:00 -10°C° 0 mm 2 mps 616 mmHg 58%
    13:00 -10°C° 0 mm 2 mps 616 mmHg 58%
    14:00 -10°C° 0 mm 2 mps 616 mmHg 59%
    15:00 -12°C° 0 mm 2 mps 616 mmHg 59%
    16:00 -13°C° 0 mm 2 mps 616 mmHg 58%
    17:00 -14°C° 0 mm 2 mps 616 mmHg 57%
    18:00 -15°C° 0 mm 2 mps 615 mmHg 58%
    19:00 -14°C° 0 mm 1 mps 615 mmHg 58%
    20:00 -14°C° 0 mm 1 mps 615 mmHg 58%
    21:00 -14°C° 0 mm 1 mps 615 mmHg 58%
    22:00 -15°C° 0 mm 1 mps 615 mmHg 59%
    23:00 -15°C° 0 mm 1 mps 615 mmHg 59%

    Tomorrow, 23 January, Wednesday

    Time Temperature Precipitation Wind Pressure Humidity
    00:00 -15°C° 0 mm 1 mps 616 mmHg 59%
    01:00 -15°C° 0 mm 1 mps 615 mmHg 59%
    02:00 -16°C° 0 mm 1 mps 615 mmHg 60%
    03:00 -16°C° 0 mm 1 mps 615 mmHg 60%
    04:00 -16°C° 0 mm 1 mps 615 mmHg 61%
    05:00 -16°C° 0 mm 1 mps 615 mmHg 61%
    06:00 -16°C° 0 mm 1 mps 615 mmHg 62%
    07:00 -16°C° 0 mm 1 mps 616 mmHg 62%
    08:00 -16°C° 0 mm 1 mps 616 mmHg 62%
    09:00 -16°C° 0 mm 1 mps 616 mmHg 62%
    10:00 -14°C° 0 mm 1 mps 616 mmHg 62%
    11:00 -13°C° 0 mm 1 mps 617 mmHg 61%
    12:00 -11°C° 0 mm 1 mps 617 mmHg 61%
    13:00 -11°C° 0 mm 1 mps 616 mmHg 63%
    14:00 -12°C° 0 mm 1 mps 616 mmHg 65%
    15:00 -12°C° 0 mm 1 mps 616 mmHg 68%
    16:00 -13°C° 0 mm 1 mps 616 mmHg 66%
    17:00 -14°C° 0 mm 1 mps 616 mmHg 64%
    18:00 -16°C° 0 mm 1 mps 616 mmHg 63%
    19:00 -16°C° 0 mm 1 mps 616 mmHg 61%
    20:00 -16°C° 0 mm 1 mps 616 mmHg 59%
    21:00 -16°C° 0 mm 1 mps 616 mmHg 57%
    22:00 -16°C° 0 mm 1 mps 616 mmHg 56%
    23:00 -16°C° 0 mm 1 mps 616 mmHg 55%

    Day after tomorrow, 24 January, Thursday

    Time Temperature Precipitation Wind Pressure Humidity
    00:00 -16°C° 0 mm 1 mps 616 mmHg 54%
    01:00 -16°C° 0 mm 1 mps 616 mmHg 53%
    02:00 -16°C° 0 mm 1 mps 616 mmHg 53%
    03:00 -16°C° 0 mm 1 mps 616 mmHg 52%
    04:00 -16°C° 0 mm 1 mps 616 mmHg 51%
    05:00 -16°C° 0 mm 1 mps 616 mmHg 51%
    06:00 -16°C° 0 mm 1 mps 616 mmHg 51%
    07:00 -18°C° 0 mm 2 mps 616 mmHg 50%
    08:00 -17°C° 0 mm 2 mps 617 mmHg 50%
    09:00 -17°C° 0 mm 2 mps 617 mmHg 50%
    10:00 -13°C° 0 mm 1 mps 618 mmHg 52%
    11:00 -11°C° 0 mm 1 mps 618 mmHg 54%
    12:00 -10°C° 0 mm 1 mps 618 mmHg 56%
    13:00 -10°C° 0 mm 1 mps 618 mmHg 58%
    14:00 -10°C° 0 mm 1 mps 618 mmHg 60%
    15:00 -10°C° 0 mm 1 mps 618 mmHg 62%
    16:00 -11°C° 0 mm 1 mps 618 mmHg 63%
    17:00 -12°C° 0 mm 1 mps 618 mmHg 64%
    18:00 -14°C° 0 mm 2 mps 619 mmHg 64%
    19:00 -15°C° 0 mm 2 mps 619 mmHg 67%
    20:00 -15°C° 0 mm 2 mps 619 mmHg 69%
    21:00 -15°C° 0 mm 2 mps 619 mmHg 71%
    22:00 -15°C° 0 mm 2 mps 619 mmHg 73%
    23:00 -16°C° 0 mm 2 mps 619 mmHg 74%

    25 January, Friday

    Time Temperature Precipitation Wind Pressure Humidity
    00:00 -16°C° 0 mm 2 mps 619 mmHg 76%
    01:00 -16°C° 0 mm 2 mps 619 mmHg 77%
    02:00 -16°C° 0 mm 2 mps 619 mmHg 77%
    03:00 -18°C° 0 mm 3 mps 619 mmHg 78%
    04:00 -18°C° 0 mm 3 mps 619 mmHg 78%
    05:00 -18°C° 0 mm 3 mps 618 mmHg 79%
    06:00 -18°C° 0 mm 3 mps 618 mmHg 79%
    07:00 -18°C° 0 mm 3 mps 619 mmHg 78%
    08:00 -18°C° 0 mm 3 mps 619 mmHg 78%
    09:00 -18°C° 0 mm 3 mps 619 mmHg 78%
    10:00 -16°C° 0 mm 3 mps 619 mmHg 77%
    11:00 -15°C° 0 mm 3 mps 619 mmHg 76%
    12:00 -13°C° 0 mm 3 mps 619 mmHg 74%
    13:00 -13°C° 0 mm 3 mps 619 mmHg 75%
    14:00 -12°C° 0 mm 2 mps 619 mmHg 76%
    15:00 -12°C° 0 mm 2 mps 618 mmHg 76%
    16:00 -13°C° 0 mm 2 mps 618 mmHg 77%
    17:00 -15°C° 0 mm 3 mps 618 mmHg 78%
    18:00 -16°C° 0 mm 3 mps 618 mmHg 78%
    19:00 -17°C° 0 mm 4 mps 618 mmHg 78%
    20:00 -18°C° 0 mm 4 mps 618 mmHg 78%
    21:00 -19°C° 0 mm 5 mps 619 mmHg 78%
    22:00 -19°C° 0 mm 4 mps 618 mmHg 78%
    23:00 -20°C° 0 mm 4 mps 618 mmHg 78%

    26 January, Saturday

    Time Temperature Precipitation Wind Pressure Humidity
    00:00 -22°C° 0 mm 4 mps 618 mmHg 78%
    01:00 -22°C° 0 mm 4 mps 618 mmHg 78%
    02:00 -23°C° 0 mm 4 mps 619 mmHg 78%
    03:00 -23°C° 0 mm 3 mps 619 mmHg 78%
    04:00 -23°C° 0 mm 3 mps 619 mmHg 78%
    05:00 -23°C° 0 mm 3 mps 619 mmHg 78%
    06:00 -24°C° 0 mm 3 mps 619 mmHg 77%
    07:00 -24°C° 0 mm 3 mps 619 mmHg 76%
    08:00 -23°C° 0 mm 3 mps 619 mmHg 75%
    09:00 -23°C° 0 mm 3 mps 620 mmHg 74%
    10:00 -19°C° 0 mm 2 mps 620 mmHg 71%
    11:00 -18°C° 0 mm 2 mps 620 mmHg 68%
    12:00 -16°C° 0 mm 2 mps 619 mmHg 65%
    13:00 -16°C° 0 mm 2 mps 619 mmHg 66%
    14:00 -16°C° 0 mm 2 mps 619 mmHg 68%
    15:00 -16°C° 0 mm 2 mps 619 mmHg 69%
    16:00 -17°C° 0 mm 2 mps 619 mmHg 67%
    17:00 -18°C° 0 mm 2 mps 619 mmHg 65%
    18:00 -19°C° 0 mm 2 mps 619 mmHg 63%
    19:00 -22°C° 0 mm 3 mps 619 mmHg 62%
    20:00 -22°C° 0 mm 3 mps 619 mmHg 61%
    21:00 -22°C° 0 mm 3 mps 619 mmHg 60%
    22:00 -22°C° 0 mm 3 mps 619 mmHg 59%
    23:00 -22°C° 0 mm 3 mps 619 mmHg 58%

    27 January, Sunday

    Time Temperature Precipitation Wind Pressure Humidity
    00:00 -22°C° 0 mm 3 mps 618 mmHg 58%
    01:00 -22°C° 0 mm 3 mps 618 mmHg 57%
    02:00 -22°C° 0 mm 3 mps 618 mmHg 57%
    03:00 -22°C° 0 mm 3 mps 618 mmHg 56%
    04:00 -22°C° 0 mm 3 mps 618 mmHg 57%
    05:00 -22°C° 0 mm 3 mps 618 mmHg 57%
    06:00 -22°C° 0 mm 3 mps 618 mmHg 57%
    07:00 -22°C° 0 mm 3 mps 618 mmHg 58%
    08:00 -21°C° 0 mm 3 mps 618 mmHg 59%
    09:00 -19°C° 0 mm 3 mps 618 mmHg 60%
    10:00 -18°C° 0 mm 3 mps 618 mmHg 61%
    11:00 -16°C° 0 mm 3 mps 618 mmHg 62%
    12:00 -14°C° 0 mm 3 mps 618 mmHg 63%
    13:00 -14°C° 0 mm 3 mps 618 mmHg 66%
    14:00 -13°C° 0 mm 3 mps 618 mmHg 68%
    15:00 -13°C° 0 mm 3 mps 617 mmHg 70%
    16:00 -14°C° 0 mm 3 mps 617 mmHg 71%
    17:00 -16°C° 0 mm 3 mps 617 mmHg 71%
    18:00 -17°C° 0 mm 3 mps 617 mmHg 72%
    19:00 -17°C° 0 mm 3 mps 617 mmHg 72%
    20:00 -18°C° 0 mm 3 mps 617 mmHg 73%
    21:00 -18°C° 0 mm 3 mps 617 mmHg 73%
    22:00 -18°C° 0 mm 3 mps 617 mmHg 73%
    23:00 -18°C° 0 mm 3 mps 616 mmHg 72%
    Show more